| time (UTC) | temp F | wind direction | speed MPH | gust MPH | rain 1hr in | rain 24hr in | rain mn in | humidity % | barometer mb |
| 20260505075504 | 63 | 298 | 5.0 | 12.0 | 0.00 | 0.00 | 0.00 | 53 | 1008.8 |
| 20260505075003 | 63 | 311 | 7.0 | 13.0 | 0.00 | 0.00 | 0.00 | 53 | 1008.8 |
| 20260505074504 | 63 | 300 | 7.0 | 17.0 | 0.00 | 0.00 | 0.00 | 53 | 1008.8 |
| 20260505074004 | 63 | 306 | 9.0 | 18.0 | 0.00 | 0.00 | 0.00 | 53 | 1008.8 |
| 20260505073504 | 63 | 292 | 8.0 | 14.0 | 0.00 | 0.00 | 0.00 | 52 | 1008.8 |
| 20260505072504 | 63 | 306 | 7.0 | 16.0 | 0.00 | 0.00 | 0.00 | 51 | 1008.8 |
| 20260505072004 | 63 | 305 | 7.0 | 14.0 | 0.00 | 0.00 | 0.00 | 51 | 1008.8 |
| 20260505071503 | 63 | 315 | 7.0 | 14.0 | 0.00 | 0.00 | 0.00 | 52 | 1008.8 |
| 20260505071003 | 64 | 310 | 5.0 | 15.0 | 0.00 | 0.00 | 0.00 | 52 | 1008.8 |
| 20260505070504 | 64 | 295 | 7.0 | 12.0 | 0.00 | 0.00 | 0.00 | 51 | 1008.8 |
| 20260505070003 | 64 | 304 | 6.0 | 14.0 | 0.00 | 0.00 | 0.00 | 50 | 1008.8 |
| 20260505065003 | 64 | 314 | 5.0 | 10.0 | 0.00 | 0.00 | 0.00 | 49 | 1008.8 |
| 20260505064003 | 65 | 308 | 5.0 | 12.0 | 0.00 | 0.00 | 0.00 | 48 | 1008.9 |
| 20260505063503 | 65 | 289 | 6.0 | 13.0 | 0.00 | 0.00 | 0.00 | 47 | 1008.9 |
| 20260505063003 | 65 | 280 | 7.0 | 13.0 | 0.00 | 0.00 | 0.00 | 46 | 1008.9 |
| 20260505062504 | 65 | 284 | 7.0 | 13.0 | 0.00 | 0.00 | 0.00 | 47 | 1008.9 |
| 20260505062004 | 65 | 303 | 9.0 | 17.0 | 0.00 | 0.00 | 0.00 | 46 | 1008.9 |
| 20260505061503 | 65 | 289 | 6.0 | 13.0 | 0.00 | 0.00 | 0.00 | 46 | 1008.9 |
| 20260505061004 | 65 | 297 | 6.0 | 13.0 | 0.00 | 0.00 | 0.00 | 45 | 1009.0 |
| 20260505060504 | 66 | 293 | 7.0 | 16.0 | 0.00 | 0.00 | 0.00 | 44 | 1009.0 |
| 20260505060003 | 66 | 282 | 5.0 | 13.0 | 0.00 | 0.00 | 0.00 | 44 | 1008.9 |
| 20260505055503 | 66 | 286 | 6.0 | 14.0 | 0.00 | 0.00 | 0.00 | 44 | 1008.9 |
| 20260505054504 | 66 | 285 | 6.0 | 12.0 | 0.00 | 0.00 | 0.00 | 44 | 1009.2 |
| 20260505054003 | 66 | 295 | 7.0 | 13.0 | 0.00 | 0.00 | 0.00 | 44 | 1009.1 |
| 20260505053003 | 66 | 269 | 6.0 | 12.0 | 0.00 | 0.00 | 0.00 | 44 | 1009.1 |
| 20260505052504 | 66 | 278 | 7.0 | 14.0 | 0.00 | 0.00 | 0.00 | 46 | 1009.3 |
| 20260505051502 | 66 | 286 | 5.0 | 12.0 | 0.00 | 0.00 | 0.00 | 44 | 1009.2 |
| 20260505051002 | 66 | 294 | 7.0 | 14.0 | 0.00 | 0.00 | 0.00 | 44 | 1009.2 |
| 20260505041502 | 67 | 289 | 7.0 | 18.0 | 0.00 | 0.00 | 0.00 | 45 | 1008.9 |
| 20260505041003 | 67 | 292 | 7.0 | 15.0 | 0.00 | 0.00 | 0.00 | 45 | 1009.0 |
| 20260505040503 | 67 | 295 | 9.0 | 17.0 | 0.00 | 0.00 | 0.00 | 45 | 1008.8 |
| 20260505040003 | 67 | 288 | 11.0 | 18.0 | 0.00 | 0.00 | 0.00 | 45 | 1008.8 |
| 20260505035502 | 67 | 275 | 9.0 | 21.0 | 0.00 | 0.00 | 0.00 | 45 | 1008.8 |
| 20260505034502 | 67 | 288 | 12.0 | 20.0 | 0.00 | 0.00 | 0.00 | 45 | 1008.7 |
| 20260505034003 | 67 | 303 | 9.0 | 20.0 | 0.00 | 0.00 | 0.00 | 45 | 1008.5 |
| 20260505033003 | 67 | 285 | 13.0 | 22.0 | 0.00 | 0.00 | 0.00 | 46 | 1008.4 |
| 20260505032002 | 67 | 287 | 10.0 | 20.0 | 0.00 | 0.00 | 0.00 | 46 | 1008.4 |
| 20260505031502 | 67 | 290 | 10.0 | 21.0 | 0.00 | 0.00 | 0.00 | 45 | 1008.3 |
| 20260505031002 | 68 | 285 | 10.0 | 23.0 | 0.00 | 0.00 | 0.00 | 46 | 1008.3 |
| 20260505030502 | 68 | 301 | 10.0 | 18.0 | 0.00 | 0.00 | 0.00 | 45 | 1008.2 |
| 20260505030002 | 68 | 286 | 13.0 | 28.0 | 0.00 | 0.00 | 0.00 | 43 | 1008.2 |
| 20260505025502 | 68 | 288 | 7.0 | 18.0 | 0.00 | 0.00 | 0.00 | 43 | 1008.2 |
| 20260505025002 | 68 | 285 | 13.0 | 22.0 | 0.00 | 0.00 | 0.00 | 43 | 1008.1 |
| 20260505024503 | 69 | 288 | 9.0 | 18.0 | 0.00 | 0.00 | 0.00 | 42 | 1008.1 |
| 20260505023502 | 69 | 299 | 12.0 | 21.0 | 0.00 | 0.00 | 0.00 | 41 | 1008.2 |
| 20260505022502 | 70 | 291 | 10.0 | 20.0 | 0.00 | 0.00 | 0.00 | 39 | 1008.1 |
| 20260505022002 | 71 | 293 | 10.0 | 15.0 | 0.00 | 0.00 | 0.00 | 38 | 1008.0 |
| 20260505021503 | 71 | 286 | 8.0 | 15.0 | 0.00 | 0.00 | 0.00 | 37 | 1007.9 |
| 20260505020502 | 71 | 282 | 9.0 | 16.0 | 0.00 | 0.00 | 0.00 | 37 | 1008.1 |
| 20260505020002 | 72 | 279 | 11.0 | 16.0 | 0.00 | 0.00 | 0.00 | 35 | 1008.2 |
| 20260505015003 | 73 | 297 | 6.0 | 14.0 | 0.00 | 0.00 | 0.00 | 33 | 1007.7 |
| 20260505014502 | 73 | 284 | 11.0 | 18.0 | 0.00 | 0.00 | 0.00 | 34 | 1007.7 |
| 20260505014002 | 73 | 276 | 3.0 | 12.0 | 0.00 | 0.00 | 0.00 | 32 | 1007.7 |
| 20260505013002 | 74 | 290 | 13.0 | 24.0 | 0.00 | 0.00 | 0.00 | 32 | 1007.8 |
| 20260505012502 | 74 | 287 | 7.0 | 15.0 | 0.00 | 0.00 | 0.00 | 31 | 1007.8 |
| 20260505012002 | 74 | 274 | 12.0 | 25.0 | 0.00 | 0.00 | 0.00 | 31 | 1007.7 |
| 20260505011502 | 75 | 296 | 10.0 | 20.0 | 0.00 | 0.00 | 0.00 | 29 | 1007.8 |
| 20260505010502 | 76 | 306 | 8.0 | 20.0 | 0.00 | 0.00 | 0.00 | 28 | 1007.9 |
| 20260505010002 | 76 | 281 | 9.0 | 16.0 | 0.00 | 0.00 | 0.00 | 28 | 1007.8 |
| 20260505005002 | 76 | 284 | 7.0 | 14.0 | 0.00 | 0.00 | 0.00 | 29 | 1007.9 |
| 20260505004503 | 76 | 295 | 3.0 | 16.0 | 0.00 | 0.00 | 0.00 | 29 | 1007.9 |
| 20260505004002 | 77 | 290 | 2.0 | 12.0 | 0.00 | 0.00 | 0.00 | 29 | 1007.9 |
| 20260505003502 | 77 | 312 | 4.0 | 12.0 | 0.00 | 0.00 | 0.00 | 28 | 1008.0 |
| 20260505003002 | 76 | 307 | 5.0 | 14.0 | 0.00 | 0.00 | 0.00 | 29 | 1008.0 |
| 20260505002503 | 77 | 290 | 10.0 | 21.0 | 0.00 | 0.00 | 0.00 | 28 | 1007.9 |
| 20260505001503 | 77 | 296 | 9.0 | 17.0 | 0.00 | 0.00 | 0.00 | 28 | 1008.1 |
| 20260505001002 | 77 | 302 | 10.0 | 18.0 | 0.00 | 0.00 | 0.00 | 28 | 1007.9 |
| 20260505000502 | 76 | 294 | 7.0 | 16.0 | 0.00 | 0.00 | 0.00 | 30 | 1008.1 |
| 20260505000002 | 76 | 294 | 8.0 | 16.0 | 0.00 | 0.00 | 0.00 | 30 | 1007.9 |
| 20260504235503 | 76 | 304 | 6.0 | 17.0 | 0.00 | 0.00 | 0.00 | 30 | 1007.8 |
| 20260504235002 | 75 | 301 | 6.0 | 21.0 | 0.00 | 0.00 | 0.00 | 31 | 1007.8 |
| 20260504234502 | 75 | 282 | 12.0 | 21.0 | 0.00 | 0.00 | 0.00 | 30 | 1007.7 |
| 20260504234002 | 75 | 293 | 11.0 | 21.0 | 0.00 | 0.00 | 0.00 | 30 | 1007.7 |
| 20260504233502 | 76 | 282 | 8.0 | 17.0 | 0.00 | 0.00 | 0.00 | 30 | 1007.7 |
| 20260504233003 | 77 | 287 | 10.0 | 17.0 | 0.00 | 0.00 | 0.00 | 30 | 1007.7 |
| 20260504232503 | 78 | 284 | 10.0 | 17.0 | 0.00 | 0.00 | 0.00 | 29 | 1007.7 |
| 20260504232002 | 77 | 269 | 6.0 | 15.0 | 0.00 | 0.00 | 0.00 | 29 | 1007.7 |
| 20260504231503 | 77 | 263 | 7.0 | 20.0 | 0.00 | 0.00 | 0.00 | 31 | 1007.8 |
| 20260504231002 | 77 | 289 | 9.0 | 22.0 | 0.00 | 0.00 | 0.00 | 29 | 1007.7 |
| 20260504230503 | 77 | 313 | 9.0 | 18.0 | 0.00 | 0.00 | 0.00 | 30 | 1007.7 |
| 20260504230002 | 77 | 311 | 9.0 | 21.0 | 0.00 | 0.00 | 0.00 | 30 | 1007.7 |
| 20260504225002 | 78 | 309 | 8.0 | 20.0 | 0.00 | 0.00 | 0.00 | 29 | 1007.9 |
| 20260504224503 | 78 | 284 | 9.0 | 17.0 | 0.00 | 0.00 | 0.00 | 30 | 1007.8 |
| 20260504224002 | 78 | 316 | 7.0 | 20.0 | 0.00 | 0.00 | 0.00 | 30 | 1008.2 |
| 20260504223502 | 78 | 302 | 7.0 | 18.0 | 0.00 | 0.00 | 0.00 | 29 | 1008.2 |
| 20260504223002 | 78 | 290 | 10.0 | 18.0 | 0.00 | 0.00 | 0.00 | 29 | 1008.1 |
| 20260504222503 | 77 | 310 | 7.0 | 14.0 | 0.00 | 0.00 | 0.00 | 30 | 1008.1 |
| 20260504222003 | 78 | 292 | 10.0 | 18.0 | 0.00 | 0.00 | 0.00 | 30 | 1008.2 |
| 20260504221502 | 78 | 280 | 8.0 | 20.0 | 0.00 | 0.00 | 0.00 | 30 | 1008.2 |
| 20260504220502 | 76 | 281 | 10.0 | 20.0 | 0.00 | 0.00 | 0.00 | 30 | 1008.6 |
| 20260504220003 | 76 | 309 | 8.0 | 22.0 | 0.00 | 0.00 | 0.00 | 31 | 1008.6 |
| 20260504215503 | 76 | 282 | 13.0 | 21.0 | 0.00 | 0.00 | 0.00 | 31 | 1008.6 |
| 20260504215002 | 76 | 284 | 12.0 | 21.0 | 0.00 | 0.00 | 0.00 | 31 | 1008.7 |
| 20260504214503 | 76 | 310 | 11.0 | 20.0 | 0.00 | 0.00 | 0.00 | 31 | 1008.8 |
| 20260504213503 | 77 | 304 | 10.0 | 21.0 | 0.00 | 0.00 | 0.00 | 30 | 1009.1 |
| 20260504213002 | 76 | 310 | 6.0 | 16.0 | 0.00 | 0.00 | 0.00 | 31 | 1009.1 |
| 20260504212502 | 76 | 301 | 5.0 | 15.0 | 0.00 | 0.00 | 0.00 | 30 | 1009.2 |
| 20260504212002 | 76 | 299 | 7.0 | 24.0 | 0.00 | 0.00 | 0.00 | 31 | 1009.3 |
| 20260504211502 | 76 | 276 | 7.0 | 20.0 | 0.00 | 0.00 | 0.00 | 30 | 1009.1 |
| 20260504211003 | 77 | 275 | 13.0 | 24.0 | 0.00 | 0.00 | 0.00 | 29 | 1009.1 |
| 20260504210503 | 77 | 280 | 9.0 | 15.0 | 0.00 | 0.00 | 0.00 | 30 | 1009.3 |
| 20260504210003 | 76 | 325 | 9.0 | 18.0 | 0.00 | 0.00 | 0.00 | 31 | 1009.3 |
| 20260504205502 | 77 | 284 | 11.0 | 17.0 | 0.00 | 0.00 | 0.00 | 30 | 1009.4 |
| 20260504205003 | 76 | 306 | 8.0 | 18.0 | 0.00 | 0.00 | 0.00 | 31 | 1009.3 |
| 20260504204503 | 76 | 317 | 8.0 | 15.0 | 0.00 | 0.00 | 0.00 | 31 | 1009.4 |
| 20260504204003 | 76 | 281 | 8.0 | 18.0 | 0.00 | 0.00 | 0.00 | 31 | 1009.4 |
| 20260504203502 | 76 | 305 | 6.0 | 16.0 | 0.00 | 0.00 | 0.00 | 31 | 1009.6 |
| 20260504203002 | 76 | 306 | 6.0 | 17.0 | 0.00 | 0.00 | 0.00 | 32 | 1009.5 |
| 20260504202502 | 75 | 300 | 6.0 | 17.0 | 0.00 | 0.00 | 0.00 | 32 | 1009.5 |
| 20260504202002 | 74 | 271 | 5.0 | 14.0 | 0.00 | 0.00 | 0.00 | 32 | 1009.6 |
| 20260504201502 | 75 | 285 | 7.0 | 12.0 | 0.00 | 0.00 | 0.00 | 32 | 1009.8 |
| 20260504201002 | 76 | 275 | 7.0 | 18.0 | 0.00 | 0.00 | 0.00 | 32 | 1009.8 |
| 20260504200503 | 75 | 316 | 6.0 | 14.0 | 0.00 | 0.00 | 0.00 | 34 | 1009.8 |
| 20260504200002 | 75 | 309 | 6.0 | 13.0 | 0.00 | 0.00 | 0.00 | 33 | 1009.8 |
| 20260504195502 | 75 | 299 | 12.0 | 17.0 | 0.00 | 0.00 | 0.00 | 33 | 1009.9 |
| 20260504195002 | 75 | 295 | 7.0 | 14.0 | 0.00 | 0.00 | 0.00 | 33 | 1009.8 |
| 20260504194502 | 74 | 321 | 5.0 | 15.0 | 0.00 | 0.00 | 0.00 | 34 | 1009.8 |
| 20260504194003 | 74 | 287 | 6.0 | 12.0 | 0.00 | 0.00 | 0.00 | 34 | 1010.1 |
| 20260504193002 | 74 | 246 | 5.0 | 12.0 | 0.00 | 0.00 | 0.00 | 33 | 1010.3 |
| 20260504192502 | 73 | 253 | 4.0 | 8.0 | 0.00 | 0.00 | 0.00 | 34 | 1010.3 |
| 20260504192002 | 73 | 263 | 4.0 | 8.0 | 0.00 | 0.00 | 0.00 | 34 | 1010.3 |
| 20260504191503 | 73 | 274 | 2.0 | 10.0 | 0.00 | 0.00 | 0.00 | 34 | 1010.3 |
| 20260504191002 | 74 | 255 | 6.0 | 12.0 | 0.00 | 0.00 | 0.00 | 34 | 1010.3 |
| 20260504190502 | 74 | 298 | 6.0 | 12.0 | 0.00 | 0.00 | 0.00 | 34 | 1010.3 |
| 20260504190002 | 74 | 322 | 3.0 | 9.0 | 0.00 | 0.00 | 0.00 | 35 | 1010.3 |
| 20260504185003 | 73 | 257 | 5.0 | 12.0 | 0.00 | 0.00 | 0.00 | 35 | 1010.4 |
| 20260504184003 | 74 | 293 | 5.0 | 12.0 | 0.00 | 0.00 | 0.00 | 35 | 1010.5 |
| 20260504183502 | 72 | 280 | 5.0 | 14.0 | 0.00 | 0.00 | 0.00 | 35 | 1010.6 |
| 20260504183003 | 73 | 279 | 3.0 | 8.0 | 0.00 | 0.00 | 0.00 | 35 | 1010.7 |
| 20260504182503 | 72 | 310 | 6.0 | 12.0 | 0.00 | 0.00 | 0.00 | 36 | 1010.8 |
| 20260504182002 | 72 | 289 | 6.0 | 13.0 | 0.00 | 0.00 | 0.00 | 37 | 1010.5 |
| 20260504181502 | 71 | 280 | 6.0 | 12.0 | 0.00 | 0.00 | 0.00 | 37 | 1010.5 |
| 20260504175503 | 70 | 283 | 8.0 | 14.0 | 0.00 | 0.00 | 0.00 | 37 | 1010.4 |
| 20260504175003 | 70 | 300 | 4.0 | 12.0 | 0.00 | 0.00 | 0.00 | 37 | 1010.4 |
| 20260504174502 | 70 | 283 | 5.0 | 12.0 | 0.00 | 0.00 | 0.00 | 37 | 1010.4 |
| 20260504174003 | 70 | 296 | 3.0 | 9.0 | 0.00 | 0.00 | 0.00 | 38 | 1010.3 |
| 20260504173503 | 70 | 281 | 7.0 | 12.0 | 0.00 | 0.00 | 0.00 | 38 | 1010.3 |
| 20260504173003 | 70 | 294 | 3.0 | 6.0 | 0.00 | 0.00 | 0.00 | 38 | 1010.3 |
| 20260504172003 | 69 | 301 | 4.0 | 12.0 | 0.00 | 0.00 | 0.00 | 39 | 1010.3 |
| 20260504171503 | 69 | 279 | 5.0 | 12.0 | 0.00 | 0.00 | 0.00 | 39 | 1010.3 |
| 20260504171003 | 68 | 266 | 6.0 | 10.0 | 0.00 | 0.00 | 0.00 | 40 | 1010.3 |
| 20260504151002 | 64 | 300 | 9.0 | 16.0 | 0.00 | 0.00 | 0.00 | 48 | 1009.7 |
| 20260504150503 | 64 | 300 | 7.0 | 17.0 | 0.00 | 0.00 | 0.00 | 49 | 1009.8 |
| 20260504141003 | 63 | 298 | 6.0 | 17.0 | 0.00 | 0.00 | 0.00 | 51 | 1009.6 |
| 20260504130502 | 63 | 277 | 11.0 | 22.0 | 0.00 | 0.00 | 0.00 | 53 | 1008.8 |
| 20260504110503 | 64 | 312 | 9.0 | 18.0 | 0.00 | 0.00 | 0.00 | 49 | 1007.9 |
| 20260504100503 | 65 | 289 | 10.0 | 17.0 | 0.00 | 0.00 | 0.00 | 43 | 1007.7 |
| 20260504082002 | 66 | 308 | 3.0 | 9.0 | 0.00 | 0.00 | 0.00 | 41 | 1009.1 |
| 20260504081502 | 66 | 323 | 3.0 | 7.0 | 0.00 | 0.00 | 0.00 | 41 | 1009.4 |
| 20260504081003 | 66 | 267 | 6.0 | 12.0 | 0.00 | 0.00 | 0.00 | 43 | 1009.3 |